Weather History for PAWS - February, 2014

Change the Weather History Date:

Monday, February 3, 2014

  Actual Average Record
Temperature  
Mean Temperature 21 °F -  
Max Temperature 30 °F 24 °F 46 °F (1977)
Min Temperature 12 °F 7 °F -33 °F (1993)
Degree Days  
Heating Degree Days 44    
Moisture  
Dew Point 10 °F    
Average Humidity 56    
Maximum Humidity 79    
Minimum Humidity 43    
Precipitation  
Precipitation 0.00 in - - ()
Sea Level Pressure  
Sea Level Pressure 30.45 in    
Wind  
Wind Speed 5 mph (NE)    
Max Wind Speed 10 mph    
Max Gust Speed -    
Visibility 10 miles    
Events      
Averages and records for this station are not official NWS values.
T = Trace of Precipitation, MM = Missing Value Source: NWS Daily Summary

Daily Weather History Graph

Daily Weather History Graph

Search for Another Location

Airport or City:

Trip Planner

Search our weather history database for the weather conditions in past years. The results will help you decide how hot, cold, wet, or windy it might be!

Date:

Astronomy

Feb. 03, 2014 Rise Set
Actual Time 9:14 AM AKST 5:10 PM AKST
Civil Twilight 8:25 AM AKST 5:59 PM AKST
Nautical Twilight 7:32 AM AKST 6:52 PM AKST
Astronomical Twilight 6:41 AM AKST 7:43 PM AKST
Moon 9:51 AM AKST (2/3) 11:53 PM AKST (2/3)
Length of Visible Light 9h 34m
Length of Day
7h 55m
Waxing Crescent, 21% of the Moon is Illuminated
Feb 3
Waxing Crescent
Feb 6
First Quarter
Feb 14
Full
Feb 22
Last Quarter
Feb 28
New

Hourly Weather History & Observations

Time (AKST) Temp. Windchill Dew Point Humidity Pressure Visibility Wind Dir Wind Speed Gust Speed Precip Events Conditions
12:16 AM 30.2 °F 21.3 °F 10.4 °F 44% 30.38 in 10.0 mi NE 10.4 mph - N/A   Clear
12:36 AM 30.2 °F 24.3 °F 10.4 °F 44% 30.38 in 10.0 mi NE 5.8 mph - N/A   Clear
12:56 AM 30.2 °F 23.4 °F 10.4 °F 44% 30.39 in 10.0 mi ENE 6.9 mph - N/A   Clear
1:16 AM 30.2 °F 23.4 °F 10.4 °F 44% 30.39 in 10.0 mi ENE 6.9 mph - N/A   Clear
1:36 AM 30.2 °F 22.6 °F 10.4 °F 44% 30.39 in 10.0 mi ENE 8.1 mph - N/A   Clear
1:56 AM 30.2 °F 21.9 °F 10.4 °F 44% 30.39 in 10.0 mi ENE 9.2 mph - N/A   Clear
2:16 AM 28.4 °F 23.3 °F 10.4 °F 47% 30.39 in 10.0 mi East 4.6 mph - N/A   Clear
2:36 AM 28.4 °F 21.2 °F 10.4 °F 47% 30.39 in 10.0 mi ENE 6.9 mph - N/A   Clear
2:56 AM 28.4 °F 21.2 °F 10.4 °F 47% 30.40 in 10.0 mi ENE 6.9 mph - N/A   Clear
3:16 AM 28.4 °F 20.4 °F 10.4 °F 47% 30.40 in 10.0 mi ENE 8.1 mph - N/A   Clear
3:36 AM 28.4 °F 19.7 °F 8.6 °F 43% 30.40 in 10.0 mi ENE 9.2 mph - N/A   Clear
3:56 AM 28.4 °F 23.3 °F 8.6 °F 43% 30.40 in 10.0 mi ENE 4.6 mph - N/A   Clear
4:16 AM 28.4 °F - 8.6 °F 43% 30.40 in 10.0 mi Calm Calm - N/A   Clear
4:36 AM 17.6 °F - 3.2 °F 53% 30.41 in 10.0 mi Calm Calm - N/A   Clear
4:56 AM 17.6 °F 12.3 °F 8.6 °F 68% 30.41 in 10.0 mi ENE 3.5 mph - N/A   Clear
5:16 AM 23.0 °F 14.7 °F 10.4 °F 59% 30.41 in 10.0 mi ENE 6.9 mph - N/A   Clear
5:36 AM 26.6 °F 20.0 °F 10.4 °F 51% 30.41 in 10.0 mi ENE 5.8 mph - N/A   Scattered Clouds
5:56 AM 26.6 °F 20.0 °F 8.6 °F 47% 30.41 in 10.0 mi ENE 5.8 mph - N/A   Scattered Clouds
6:16 AM 26.6 °F 22.6 °F 8.6 °F 47% 30.41 in 10.0 mi East 3.5 mph - N/A   Partly Cloudy
6:36 AM 26.6 °F 21.2 °F 8.6 °F 47% 30.41 in 10.0 mi ENE 4.6 mph - N/A   Clear
6:56 AM 21.2 °F - 6.8 °F 54% 30.41 in 10.0 mi Calm Calm - N/A   Clear
7:16 AM 14.0 °F - 5.0 °F 67% 30.41 in 10.0 mi Calm Calm - N/A   Clear
7:36 AM 12.2 °F - 6.8 °F 79% 30.41 in 10.0 mi Calm Calm - N/A   Clear
7:56 AM 12.2 °F - 6.8 °F 79% 30.41 in 10.0 mi Calm Calm - N/A   Clear
8:16 AM 14.0 °F 8.2 °F 6.8 °F 73% 30.42 in 10.0 mi WSW 3.5 mph - N/A   Clear
8:36 AM 12.2 °F 6.1 °F 6.8 °F 79% 30.43 in 10.0 mi West 3.5 mph - N/A   Clear
8:56 AM 12.2 °F 4.3 °F 6.8 °F 79% 30.43 in 10.0 mi WSW 4.6 mph - N/A   Clear
9:16 AM 12.2 °F 4.3 °F 6.8 °F 79% 30.43 in 10.0 mi West 4.6 mph - N/A   Partly Cloudy
9:36 AM 12.2 °F 4.3 °F 6.8 °F 79% 30.44 in 10.0 mi WSW 4.6 mph - N/A   Partly Cloudy
9:56 AM 12.2 °F - 6.8 °F 79% 30.45 in 10.0 mi Calm Calm - N/A   Partly Cloudy
10:16 AM 12.2 °F - 6.8 °F 79% 30.45 in 10.0 mi Calm Calm - N/A   Clear
10:36 AM 12.2 °F - 6.8 °F 79% 30.45 in 10.0 mi Calm Calm - N/A   Mostly Cloudy
10:56 AM 14.0 °F 8.2 °F 8.6 °F 79% 30.45 in 10.0 mi SW 3.5 mph - N/A   Mostly Cloudy
11:16 AM 15.8 °F 7.2 °F 8.6 °F 73% 30.45 in 10.0 mi West 5.8 mph - N/A   Mostly Cloudy
11:36 AM 15.8 °F 8.6 °F 8.6 °F 73% 30.45 in 10.0 mi SW 4.6 mph - N/A   Overcast
11:56 AM 17.6 °F 12.3 °F 10.4 °F 73% 30.45 in 10.0 mi WSW 3.5 mph - N/A   Mostly Cloudy
12:16 PM 19.4 °F - 10.4 °F 68% 30.45 in 10.0 mi Calm Calm - N/A   Overcast
12:36 PM 19.4 °F - 10.4 °F 68% 30.45 in 10.0 mi Calm Calm - N/A   Scattered Clouds
12:56 PM 21.2 °F - 12.2 °F 68% 30.46 in 10.0 mi Calm Calm - N/A   Mostly Cloudy
1:16 PM 21.2 °F - 14.0 °F 74% 30.46 in 10.0 mi Calm Calm - N/A   Overcast
1:36 PM 24.8 °F - 14.0 °F 64% 30.46 in 10.0 mi Calm Calm - N/A   Overcast
1:56 PM 28.4 °F 21.2 °F 14.0 °F 55% 30.46 in 10.0 mi NE 6.9 mph - N/A   Overcast
2:16 PM 30.2 °F - 10.4 °F 44% 30.46 in 10.0 mi Calm Calm - N/A   Overcast
2:36 PM 26.6 °F - 14.0 °F 59% 30.46 in 10.0 mi Calm Calm - N/A   Overcast
2:56 PM 26.6 °F - 15.8 °F 64% 30.46 in 10.0 mi Calm Calm - N/A   Overcast
3:16 PM 28.4 °F 24.6 °F 12.2 °F 51% 30.47 in 10.0 mi NNE 3.5 mph - N/A   Overcast
3:36 PM 28.4 °F 22.2 °F 12.2 °F 51% 30.47 in 10.0 mi ENE 5.8 mph - N/A   Overcast
3:56 PM 30.2 °F 24.3 °F 10.4 °F 44% 30.47 in 10.0 mi North 5.8 mph - N/A   Overcast
4:16 PM 28.4 °F 22.2 °F 10.4 °F 47% 30.47 in 10.0 mi NNE 5.8 mph - N/A   Overcast
4:36 PM 30.2 °F 25.4 °F 10.4 °F 44% 30.47 in 10.0 mi North 4.6 mph - N/A   Overcast
4:56 PM 28.4 °F 20.4 °F 12.2 °F 51% 30.48 in 10.0 mi North 8.1 mph - N/A   Overcast
5:16 PM 28.4 °F 19.7 °F 10.4 °F 47% 30.48 in 10.0 mi NNE 9.2 mph - N/A   Overcast
5:36 PM 28.4 °F 19.7 °F 10.4 °F 47% 30.48 in 10.0 mi NNE 9.2 mph - N/A   Mostly Cloudy
5:56 PM 28.4 °F 20.4 °F 10.4 °F 47% 30.48 in 10.0 mi NNE 8.1 mph - N/A   Scattered Clouds
6:16 PM 28.4 °F 20.4 °F 10.4 °F 47% 30.49 in 10.0 mi NNE 8.1 mph - N/A   Scattered Clouds
6:36 PM 28.4 °F 19.7 °F 10.4 °F 47% 30.49 in 10.0 mi NNE 9.2 mph - N/A   Overcast
6:56 PM 28.4 °F 21.2 °F 10.4 °F 47% 30.49 in 10.0 mi NNE 6.9 mph - N/A   Overcast
7:16 PM 28.4 °F 20.4 °F 10.4 °F 47% 30.49 in 10.0 mi NNE 8.1 mph - N/A   Overcast
7:36 PM 28.4 °F 21.2 °F 10.4 °F 47% 30.50 in 10.0 mi NNE 6.9 mph - N/A   Overcast
7:56 PM 28.4 °F 22.2 °F 10.4 °F 47% 30.50 in 10.0 mi NNE 5.8 mph - N/A   Overcast
8:16 PM 28.4 °F 21.2 °F 10.4 °F 47% 30.50 in 10.0 mi NE 6.9 mph - N/A   Overcast
8:36 PM 28.4 °F 21.2 °F 10.4 °F 47% 30.50 in 10.0 mi ENE 6.9 mph - N/A   Overcast
8:56 PM 28.4 °F 21.2 °F 10.4 °F 47% 30.50 in 10.0 mi NE 6.9 mph - N/A   Overcast
9:16 PM 28.4 °F - 10.4 °F 47% 30.51 in 10.0 mi Calm Calm - N/A   Overcast
9:36 PM 28.4 °F - 10.4 °F 47% 30.51 in 10.0 mi Calm Calm - N/A   Mostly Cloudy
9:56 PM 26.6 °F - 12.2 °F 55% 30.52 in 10.0 mi Calm Calm - N/A   Partly Cloudy
10:16 PM 28.4 °F 20.4 °F 10.4 °F 47% 30.52 in 10.0 mi NE 8.1 mph - N/A   Partly Cloudy
10:36 PM 26.6 °F 20.0 °F 10.4 °F 51% 30.52 in 10.0 mi NNE 5.8 mph - N/A   Mostly Cloudy
10:56 PM 26.6 °F 18.2 °F 10.4 °F 51% 30.52 in 10.0 mi NE 8.1 mph - N/A   Mostly Cloudy
11:16 PM 28.4 °F 22.2 °F 8.6 °F 43% 30.52 in 10.0 mi NNE 5.8 mph - N/A   Overcast
11:36 PM 28.4 °F 23.3 °F 8.6 °F 43% 30.53 in 10.0 mi NNE 4.6 mph - N/A   Overcast
11:56 PM 28.4 °F - 8.6 °F 43% 30.54 in 10.0 mi Calm Calm - N/A   Overcast